Theta_e
356 355 355 354 354 353 353 353 353 354 355 355 355 354 355 356 356 357 357 357 357 358 359 358 357 357 356 357 357 356 356 356 357 356 355 355 354 355 358 357 355 356
356 355 355 353 353 353 353 353 354 354 354 355 355 354 354 354 355 356 356 357 358 359 359 358 356 356 357 357 356 355 356 356 358 358 357 357 356 356 358 357 357 357
356 355 354 353 352 352 353 353 354 355 355 355 355 355 356 355 355 356 356 356 356 358 358 357 357 357 358 358 357 356 355 356 357 357 358 358 356 357 358 357 357 357
356 354 353 353 351 352 352 352 353 354 354 355 355 355 356 356 357 357 356 356 356 356 357 358 359 359 360 359 358 358 356 355 355 356 357 358 358 358 358 357 357 357
354 355 353 353 352 352 352 352 353 353 354 355 355 353 354 356 357 358 357 357 357 356 356 357 360 360 360 359 359 359 357 355 355 355 357 358 359 359 358 357 358 358
353 354 354 354 354 354 354 354 354 354 353 355 355 354 354 354 355 357 357 357 358 357 355 357 359 359 359 358 358 360 359 358 356 357 358 358 359 359 359 357 357 357
355 354 354 354 354 355 355 355 355 355 353 354 355 355 355 355 354 355 355 356 357 357 357 356 358 358 358 358 358 359 358 358 358 359 359 358 357 357 356 355 356 356
356 355 354 355 355 355 356 355 355 356 354 354 355 354 355 355 355 353 353 354 355 357 358 358 358 358 358 358 358 359 358 356 356 357 358 358 357 357 355 353 354 356
356 355 355 356 356 355 356 356 355 355 354 354 353 353 353 354 355 354 353 354 354 356 357 357 358 358 358 357 357 358 358 357 355 354 355 358 358 357 356 355 354 354
356 355 355 356 357 357 356 356 356 355 354 352 351 352 351 351 353 354 354 355 354 355 355 355 356 356 356 357 356 356 356 356 355 354 354 355 356 356 356 356 355 355
356 355 355 355 356 356 356 356 356 355 354 352 351 351 351 350 351 352 353 353 354 355 355 355 355 355 355 356 356 355 354 353 354 354 353 353 352 352 353 354 355 355
356 356 355 355 355 355 356 355 355 355 354 352 352 351 350 350 350 351 351 351 352 353 354 355 355 355 355 355 355 355 355 354 353 353 353 353 352 351 351 353 355 354
355 356 356 356 355 355 355 355 354 354 352 352 351 351 350 350 350 350 350 350 350 350 351 351 352 354 355 355 355 354 354 353 353 352 352 352 353 352 352 353 353 354
354 355 355 355 355 355 355 355 354 353 351 349 349 349 350 350 350 350 350 350 349 348 349 349 349 351 353 354 355 355 354 353 352 352 351 351 352 353 353 352 352 352
352 353 353 353 354 354 354 355 355 354 352 350 348 347 348 349 350 350 349 349 349 348 348 348 348 349 350 351 352 353 353 353 352 351 351 351 351 352 353 353 351 350
352 352 352 353 353 353 354 354 354 353 353 351 349 347 347 348 348 350 350 348 348 348 348 348 348 348 349 348 349 350 351 352 352 351 351 351 352 353 353 354 353 352
353 353 352 352 353 353 352 352 352 352 352 352 351 349 348 347 347 349 351 350 348 347 347 348 347 347 347 348 348 348 349 350 351 350 350 351 352 353 354 354 354 354
352 353 352 352 352 352 352 352 352 353 352 352 352 351 350 349 347 349 351 353 352 349 347 347 347 347 347 346 347 348 348 349 349 350 350 350 351 352 352 353 354 354
352 352 352 353 353 353 353 353 353 353 353 353 353 352 351 351 350 349 350 353 355 353 349 346 346 347 347 347 346 347 347 348 348 349 350 350 350 351 351 351 351 351
348 349 349 350 351 352 353 354 354 355 355 354 354 353 352 352 352 351 350 351 354 355 353 350 348 348 348 348 349 349 349 350 350 350 351 351 351 351 351 351 350 349
342 344 345 345 346 347 348 350 352 353 354 354 355 355 354 354 353 353 353 352 353 355 354 354 352 351 351 350 350 351 351 350 351 351 352 352 353 353 353 352 351 350
338 339 341 342 343 344 344 345 346 348 349 350 352 354 355 355 355 355 355 354 355 355 355 355 354 354 353 353 353 353 352 352 352 352 352 352 352 352 352 352 352 352
338 338 339 340 340 342 343 343 342 343 345 347 349 350 352 354 355 355 355 355 355 355 355 355 354 354 354 353 354 354 354 354 354 354 354 354 354 353 352 352 351 351
335 335 335 336 337 339 342 343 341 341 342 344 347 349 350 351 352 353 354 355 355 355 355 355 355 355 355 354 354 353 353 353 354 354 354 354 355 355 354 353 352 351
330 331 332 333 333 333 335 337 338 339 340 341 344 347 349 350 350 351 352 353 354 354 354 354 354 354 354 354 354 354 354 354 354 353 353 353 353 354 354 354 354 353
328 328 330 331 330 327 326 328 331 335 338 341 341 343 346 348 349 349 349 349 349 349 350 351 351 352 353 354 354 354 354 354 354 354 354 354 353 353 353 353 353 353
Wind_Speed
22 23 22 22 21 17 20 22 22 22 21 20 19 18 18 18 16 16 16 15 15 16 15 13 14 14 12 12 12 11 11 9 7 8 8 8 8 8 6 6 5 6
22 23 21 22 22 18 18 21 20 20 20 19 18 17 17 17 16 16 16 15 15 16 16 15 14 14 13 12 12 12 12 11 9 8 9 8 8 8 8 6 6 6
23 23 22 22 24 21 19 21 20 18 18 17 17 17 17 17 16 17 16 15 16 16 16 16 15 14 13 12 12 12 12 12 11 9 9 10 9 8 8 7 6 6
25 23 23 22 23 23 21 21 20 20 19 17 18 18 18 17 16 17 17 17 17 17 16 16 16 14 14 14 13 12 13 13 11 10 11 11 10 9 8 8 8 6
26 23 23 23 22 22 21 21 21 22 22 20 18 18 19 18 17 17 17 18 19 19 16 16 16 16 15 15 14 13 13 14 12 11 12 12 11 10 10 9 9 8
27 25 24 23 23 22 22 22 21 21 23 22 19 18 19 19 18 17 16 16 19 19 17 16 17 16 15 15 16 15 14 14 13 11 12 13 11 11 11 11 10 9
27 26 25 24 24 23 23 23 22 21 23 23 22 20 20 19 20 19 17 16 18 19 17 16 17 17 16 15 16 16 16 15 13 12 12 13 13 13 12 11 12 12
26 26 25 25 26 25 24 23 23 22 22 22 22 22 22 21 21 21 21 20 19 20 19 17 18 18 18 16 16 16 16 15 15 14 14 14 14 15 14 12 13 14
23 26 25 25 26 26 26 25 24 23 23 23 23 23 23 23 22 22 22 22 22 22 21 20 20 20 19 18 18 18 17 17 16 16 16 16 16 16 16 14 13 14
19 24 26 26 26 26 26 25 24 24 24 24 24 24 24 24 23 24 22 21 23 24 23 22 22 22 21 21 20 19 19 19 18 17 17 18 19 18 17 16 16 15
21 23 26 27 26 26 25 25 23 23 25 26 26 25 25 25 24 25 25 23 23 24 24 23 22 22 22 23 23 22 21 20 19 19 18 18 19 19 19 18 18 18
23 22 23 25 26 25 25 25 24 22 23 26 27 26 26 26 26 26 27 27 26 25 25 24 23 22 22 23 24 24 23 22 21 20 20 19 19 19 19 19 20 21
22 22 23 23 24 23 22 23 24 23 23 24 25 26 26 26 27 27 28 29 28 27 27 26 25 24 23 23 23 24 25 25 24 23 22 22 21 20 20 20 21 22
22 22 22 21 22 22 20 20 20 20 20 21 21 22 24 25 26 28 28 29 29 29 29 28 28 27 26 25 25 25 26 26 26 26 25 24 23 23 22 21 22 22
19 20 20 19 21 22 22 22 21 19 18 20 20 20 20 21 23 26 28 29 30 30 30 30 30 30 28 28 27 27 28 28 28 27 27 27 26 25 24 24 23 22
14 15 16 17 19 21 22 23 23 21 18 19 21 21 20 19 19 21 24 28 30 31 32 32 32 32 31 30 29 29 29 30 30 29 29 28 28 27 27 27 26 25
11 12 12 14 14 15 17 18 19 18 17 17 19 21 21 21 20 18 17 21 26 29 31 33 34 34 33 32 31 31 31 31 31 31 30 30 30 29 29 29 28 28
9 10 10 11 11 10 11 13 14 15 15 16 18 19 19 20 20 18 14 14 17 22 28 32 35 35 35 34 33 32 32 32 32 32 31 31 31 32 32 32 31 30
9 9 9 8 7 7 7 8 9 10 10 12 14 16 17 17 18 18 16 14 12 14 20 27 32 34 34 34 34 33 32 32 32 32 32 32 33 33 33 34 34 33
7 7 6 5 3 2 3 3 3 2 3 4 7 10 13 15 17 18 18 16 13 10 11 15 21 26 29 30 31 32 31 31 32 32 32 32 32 33 33 34 34 34
10 9 8 7 5 3 1 0 0 1 2 3 3 5 8 10 13 16 17 16 14 12 10 9 10 14 17 19 21 23 25 27 29 31 32 32 32 32 33 34 34 35
12 13 12 11 9 7 5 5 4 3 3 4 4 5 6 7 8 10 12 13 13 12 11 9 9 9 10 10 12 14 16 18 20 23 26 28 29 30 31 32 33 33
11 12 13 11 10 9 8 8 9 8 5 3 3 4 5 6 6 6 8 10 11 12 11 10 9 9 9 10 11 12 14 15 16 17 19 21 23 25 27 29 30 31
12 12 12 11 11 10 9 8 10 10 9 7 5 4 5 5 5 6 6 8 9 10 10 11 10 9 9 11 12 14 15 16 16 18 19 21 22 23 23 24 27 29
14 13 12 12 11 11 11 10 10 10 10 10 9 7 7 6 5 5 6 6 7 7 8 9 10 9 10 11 13 15 17 17 18 18 19 20 21 22 23 24 26 29
12 13 13 13 12 13 13 12 12 12 11 11 11 10 9 8 7 7 7 6 6 7 6 7 8 9 10 11 13 15 17 18 19 21 22 22 21 22 24 26 28 30
Wind_Direction
196 198 198 200 202 202 201 203 204 203 203 202 202 206 211 219 224 224 225 220 216 220 224 229 231 225 222 223 224 226 228 227 221 217 218 217 221 227 241 265 269 271
201 201 200 200 203 203 199 198 200 202 205 206 208 211 213 218 223 222 222 218 215 221 228 233 232 226 224 225 224 222 224 228 224 219 223 222 220 230 246 264 273 272
204 204 202 201 203 204 200 197 198 201 204 208 212 215 217 222 226 224 221 220 218 221 228 232 232 228 226 224 221 219 221 226 226 222 230 233 230 236 246 255 266 276
205 206 205 203 205 207 206 204 206 207 207 212 217 217 219 223 229 229 226 227 227 224 225 229 230 230 230 227 224 224 226 228 229 229 234 236 238 244 248 250 260 276
207 208 208 207 208 209 211 212 215 214 210 213 218 217 217 218 225 231 230 231 231 227 226 228 231 233 235 231 228 232 235 235 234 233 236 237 240 249 253 253 258 269
210 211 210 210 211 211 213 215 218 216 211 212 214 215 215 215 220 227 227 225 224 224 228 231 232 236 238 234 231 234 239 242 239 235 241 244 244 251 258 255 253 258
212 214 214 214 214 214 215 216 219 219 214 213 216 219 218 215 217 221 224 223 221 221 227 234 236 238 240 237 234 237 241 242 240 238 245 249 247 252 260 257 250 254
214 216 217 218 218 218 218 219 221 222 220 219 220 221 221 219 218 220 223 226 224 223 227 233 239 240 241 241 241 243 245 244 242 240 242 248 253 257 260 257 252 256
217 218 220 221 221 221 222 223 224 225 225 226 226 224 224 224 222 223 225 226 226 225 227 231 236 238 239 241 243 245 248 250 250 246 242 245 253 259 259 256 255 258
212 217 219 221 222 223 224 225 227 230 229 230 232 231 230 229 227 228 229 229 226 225 228 231 234 235 235 238 243 245 246 249 252 251 248 247 250 255 256 254 254 258
201 210 216 219 221 223 224 225 229 233 232 233 234 234 235 234 232 231 231 231 228 226 227 231 234 236 235 236 241 243 244 247 250 252 254 254 254 254 254 255 256 258
195 202 210 215 219 220 222 225 228 231 232 232 233 235 237 238 238 235 233 232 232 230 230 233 236 236 236 237 240 243 244 245 248 251 254 257 259 257 254 257 260 262
202 203 208 213 216 216 217 222 227 231 231 229 231 234 236 240 242 241 239 236 236 236 237 239 240 239 239 240 241 243 244 245 247 250 253 255 258 259 258 260 262 263
215 213 215 218 218 217 219 222 225 232 235 232 231 233 236 239 242 244 244 241 239 240 241 242 242 241 241 242 243 244 245 247 248 249 252 254 256 258 260 262 264 264
219 220 222 222 221 222 226 226 226 233 241 240 238 238 240 241 242 244 245 243 242 242 242 241 241 240 241 243 244 245 245 247 249 251 253 255 256 258 260 262 264 264
215 217 217 217 219 224 228 229 229 233 241 242 241 244 248 250 251 251 249 247 245 244 242 241 240 240 242 243 244 245 245 246 247 250 253 254 256 258 260 261 262 263
207 211 210 212 217 222 224 227 230 236 243 243 242 247 251 254 256 256 253 251 249 247 245 243 241 242 244 245 245 246 245 245 246 248 251 252 254 256 259 262 264 264
169 184 190 196 203 208 215 223 230 238 245 247 246 247 249 250 253 254 253 252 251 250 248 246 244 245 246 247 248 247 247 246 246 248 250 251 252 254 257 260 262 263
127 139 146 157 170 179 191 206 220 231 241 247 249 251 252 252 255 256 255 255 254 251 249 248 247 247 247 248 249 250 249 248 248 249 251 252 254 255 256 258 259 260
109 115 112 108 114 141 167 175 186 207 233 248 252 253 253 254 256 259 258 258 261 260 254 250 248 247 248 248 248 249 250 249 248 249 251 254 256 257 258 259 260 260
75 80 80 71 54 30 14 24 295 353 2 336 301 276 262 254 254 258 261 261 263 266 267 264 255 247 245 246 247 248 249 249 249 250 251 253 256 257 259 260 262 263
57 59 60 55 42 29 29 33 20 357 341 332 324 308 291 273 260 259 263 265 267 270 274 277 276 269 259 253 251 251 251 252 253 255 256 258 258 259 259 260 262 263
46 46 46 41 27 13 13 24 25 19 8 343 311 300 298 294 287 280 276 275 276 279 283 287 290 291 286 277 269 266 264 262 260 260 261 263 263 263 262 261 261 261
34 33 30 26 17 4 357 5 12 14 15 9 346 309 292 291 293 295 294 291 289 288 290 293 296 301 302 294 287 282 277 273 270 267 265 265 266 267 268 268 267 265
26 25 20 19 17 8 357 353 352 356 0 0 354 335 313 303 298 294 293 295 298 299 301 301 299 301 302 298 292 288 286 285 284 281 276 274 274 276 278 278 278 276
16 18 16 15 11 360 352 352 353 351 346 342 342 337 325 317 314 311 306 305 309 309 306 303 295 288 284 283 283 285 287 287 286 283 282 282 284 284 284 284 283 281